sat.trackr.live / text

‹ back to catalog

STARLINK-5698

NORAD 55623 · 2023-020BG

PAYLOAD ACTIVE UNKNOWN

§ Identity

Operator
Country
US
Launch date
2023-02-12
Launch site
AFETR
Launch vehicle
Mass (kg)
RCS (m²)

Purposes: comms

External: N2YO · Heavens-Above · Gunter

§ Orbital elements

Epoch: 2026-05-25T02:14:48.920064Z

Period
94.20 min
Inclination
43.0029°
Eccentricity
0.0001312
Mean motion
15.28644493 rev/d
Perigee alt
479.0 km
Apogee alt
480.8 km
Semi-major
6,858.0 km
B*
1.9151e-2
RAAN
282.7903°
Arg perigee
51.0172°
Mean anomaly
309.0796°
Rev number
18,072

§ Raw data

STARLINK-56981 55623U 23020BG  26145.09362176  .00582119  00000+0  19151-1 0  99932 55623  43.0029 282.7903 0001312  51.0172 309.0796 15.28644493180723

JSON: /api/v1/satellites/55623 · /tle

For live sub-satellite position, see the globe view (requires WebGL).

§ Visibility from observer

Set your observer location to see the next 7 days of passes ≥ 10°. The values pass through the URL so the page stays shareable.

No JS? Fill the form by hand. The geolocation button needs JavaScript.